Regional Weather Roundup
Issued by NWS

Home | Current Version | Previous Version | Graphics & Text | Print | Product List | Glossary Off
Versions: 1 2 3 4 5 6 7 8 9 10 11 12 13 14 15 16 17 18 19 20 21 22 23 24 25 26 27 28 29 30 31 32 33 34 35 36 37 38 39 40 41 42 43 44 45 46 47 48 49 50

000
ASUS45 KBOU 302007
RWRCO

WEATHER ROUNDUP FOR COLORADO
NATIONAL WEATHER SERVICE DENVER/BOULDER CO
200 PM MDT SAT JUL 30 2016

NOTE: "FAIR" INDICATES FEW OR NO CLOUDS BELOW 12000 FEET WITH NO
SIGNIFICANT WEATHER AND/OR OBSTRUCTIONS TO VISIBILITY.

COZ001>005-013-030-031-302100-
...NORTHWEST COLORADO...

CITY           SKY/WX    TMP DP  RH WIND       PRES   REMARKS
CRAIG          FAIR      90  28  11 W7        30.10F
HAYDEN         FAIR      88  34  14 W8G16     30.13F
MEEKER         FAIR      89  31  12 SW8       30.12F
MOUNT WERNER   NOT AVBL
STEAMBOAT SPGS FAIR      85  36  17 S9        30.16F
WALDEN         PTSUNNY   77  28  16 N15G23    30.27S
$$

COZ006>008-011-302100-
...WEST CENTRAL VALLEYS...

CITY           SKY/WX    TMP DP  RH WIND       PRES   REMARKS
GRAND JUNCTION FAIR      92  39  15 SE10G17   30.03F
MONTROSE       FAIR      84  41  21 N8        30.14F
EAGLE          SUNNY     88  30  12 E7        30.13F
RIFLE          FAIR      94  31  10 VRB5      30.05F
DELTA          NOT AVBL
NUCLA          NOT AVBL
$$

COZ017>023-064>068-302100-
...SOUTHWEST COLORADO...

CITY           SKY/WX    TMP DP  RH WIND       PRES   REMARKS
DURANGO        FAIR      88  42  20 MISG      30.17F
CORTEZ         FAIR      92  43  18 VRB5      30.11F
PAGOSA SPRINGS FAIR      83  31  15 W7        30.27S
TELLURIDE      FAIR      80  37  21 CALM      30.40S THUNDER
WOLF CREEK PAS PTSUNNY   59  41  51 N8        30.66R
$$

COZ009-010-012-014-032>034-037-058>063-302100-
...CENTRAL COLORADO...

CITY           SKY/WX    TMP DP  RH WIND       PRES   REMARKS
ASPEN          FAIR      83  28  13 NW13G20   30.24F
BUENA VISTA    PTSUNNY   70  44  38 E6        30.26S
COPPER MTN     PTSUNNY   66  12  12 W20G30    30.61F
BERTHOUD PASS  FAIR      57  43  58 N24G38    30.63F
COTTONWOOD PAS CLOUDY    70  27  19 W20G29    30.42R
GUNNISON       FAIR      77  36  22 W14G24    30.30S
KREMMLING      FAIR      90  16   6 N10G20    30.21F
LEADVILLE      FAIR      74  22  14 W15G26    30.42F
MONARCH PASS   FAIR      64  32  29 MISG      30.71S
SALIDA         CLOUDY    88  31  13 NW10G18   30.25S
SUNLIGHT       FAIR      75  32  20 MISG      30.55F
WILKERSON PASS FAIR      70  18  13 NW3       30.56S
$$

COZ069>075-302100-
...SAN LUIS VALLEY/SANGRE DE CRISTO MOUNTAINS...

CITY           SKY/WX    TMP DP  RH WIND       PRES   REMARKS
ALAMOSA          N/A     84  40  21 MISG      30.23F
LA VETA PASS   FAIR      75  36  23 S8        30.45F
SAGUACHE       FAIR      81  43  26 S10       30.26F
$$

COZ035-036-038>040-302100-
...NORTHERN COLORADO FRONT RANGE...

CITY           SKY/WX    TMP DP  RH WIND       PRES   REMARKS
DENVER INTL AP FAIR      89  50  26 N8        30.03F
DMNS CITY PARK   N/A     89  53  28 N9        30.01F
AURORA         MOSUNNY   89  47  23 N7        30.05F
FRONT RANGE AP MOSUNNY   91  48  22 N7        30.05F
ERIE MUNI ARPT FAIR      88  51  27 SE5       30.01F
BOULDER MUN AP FAIR      84  55  37 E5        30.02F
CENTENNIAL     FAIR      88  42  20 NE12      30.06F
BROOMFIELD     SUNNY     86  54  32 N3        30.06F
LONGMONT       NOT AVBL
$$

COZ041-046-047-076>085-087-088-302100-
...PIKES PEAK/PALMER DIVIDE AND SOUTHERN FOOTHILLS...

CITY           SKY/WX    TMP DP  RH WIND       PRES   REMARKS
COLO. SPRINGS  PTSUNNY   85  48  27 S9        30.10S THUNDER
A. F. ACADEMY  DRIZZLE   85  48  27 E13       30.10F
SCHRIEVER AFB  NOT AVBL
ELLICOTT       NOT AVBL
FALCON         NOT AVBL
FORT CARSON    FAIR      84  48  28 E5        30.06S
LIMON          FAIR      91  52  26 VRB5      30.02F
MONUMENT HILL  FAIR      84  36  17 N9G22     30.17F
TRINIDAD       NOT AVBL
$$

COZ042>045-048>051-090-091-302100-
...NORTHEAST COLORADO...

CITY           SKY/WX    TMP DP  RH WIND       PRES   REMARKS
GREELEY ARPT   FAIR      84  64  51 E10       30.00F
AKRON          FAIR      87  52  29 E12G25    30.00F
BURLINGTON     FAIR      86  59  39 SE16G24   29.99F
WRAY           FAIR      90  57  33 SE13G24   29.96F
STERLING       NOT AVBL
HOLYOKE        NOT AVBL
FORT MORGAN    NOT AVBL
$$

COZ086-089-092>099-302100-
...SOUTHEAST COLORADO...

CITY           SKY/WX    TMP DP  RH WIND       PRES   REMARKS
PUEBLO         FAIR      96  53  23 E12       29.95F
LA JUNTA       FAIR      93  58  30 E6        29.93F
LAMAR          FAIR      92  62  36 E12       29.91F
SPRINGFIELD      N/A     92  57  30 SW16G25   29.97F
$$



USA.gov is the U.S. government's official web portal to all federal, state and local government web resources and services.